{"data":{"norad_id":68702,"epoch":"2026-09-19T10:49:56.161344Z","epoch_age_seconds":134389,"freshness":"FRESH","line1":"1 68702U 26081D   26262.45134446  .00015875  00000+0  47998-3 0  9994","line2":"2 68702  53.1586 210.9097 0002337  48.7841 311.3363 15.34400205 24457","mean_motion":15.34400205,"eccentricity":0.0002337,"inclination_deg":53.1586,"raan_deg":210.9097,"arg_perigee_deg":48.7841,"mean_anomaly_deg":311.3363,"bstar":0.00047998,"rev_number":2445,"period_min":93.847745543021,"perigee_km":461.10392668223,"apogee_km":464.30133512571,"semimajor_km":6840.839630904,"source":"CELESTRAK","updated_at":"2026-09-20T09:00:43.956928Z"}}